Tracking 30009 objects as of 7-Dec-2024
HD Live streaming from Space Station
objects crossing your sky now

STARLINK-31857

Track STARLINK-31857 now!
10-day predictions
STARLINK-31857 is classified as:


NORAD ID: 59843
Int'l Code: 2024-097J
Perigee: 449.7 km
Apogee: 452.4 km
Inclination: 43.0 °
Period: 93.5 minutes
Semi major axis: 6822 km
RCS: Unknown
Launch date: May 23, 2024
Source: United States (US)
Launch site: AIR FORCE EASTERN TEST RANGE (AFETR)
Your satellite tracking list
Your tracking list is empty




NASA's NSSDC Master Catalog

Two Line Element Set (TLE):
1 59843U 24097J   24342.08975294 -.00003693  00000-0 -81057-4 0  9998
2 59843  43.0050 348.9549 0002006 246.0927 113.9720 15.40738148 31832
Source of the keplerian elements: AFSPC